Simultaneous Nadir Overpasses (SNOs) Predictions

Prediction of SNOs between NPP and TERRA Satellite Orbit:

Table of predicted SNOs for the next 14.0 days since TLE Epoch: 6/1/2024
Index Date (NPP) Time (NPP) Lat,Lon (NPP) SZA (NPP ) Date (TERRA) Time (TERRA) Lat,Lon (TERRA) SZA (TERRA ) Distance(km) Time Diff (sec)
1 06/03/2024 12:34:59 72.77, -16.97 50.45 06/03/2024 12:36:08 72.64, -15.34 50.25 55.83 69
2 06/03/2024 13:25:32 -72.21, 151.47 130.16 06/03/2024 13:25:39 -72.21, 151.54 130.16 2.57 7
3 06/03/2024 14:16:14 72.01, -40.85 49.63 06/03/2024 14:15:01 72.06, -41.05 49.70 8.83 73
4 06/06/2024 00:37:54 -72.25, -16.70 130.38 06/06/2024 00:38:57 -72.26, -16.74 130.38 1.86 63
5 06/06/2024 01:28:38 72.16, 150.79 49.52 06/06/2024 01:28:18 72.16, 150.75 49.52 1.31 20
6 06/08/2024 12:41:00 72.26, -17.50 49.41 06/08/2024 12:41:33 72.28, -17.40 49.41 3.79 33
7 06/08/2024 13:31:42 -72.15, 150.02 130.71 06/08/2024 13:30:59 -72.13, 149.99 130.73 3.26 43
8 06/10/2024 23:53:34 72.92, 173.06 49.95 06/10/2024 23:54:41 72.80, 175.19 49.71 70.96 67
9 06/11/2024 00:44:04 -72.21, -18.17 130.84 06/11/2024 00:44:15 -72.22, -18.21 130.82 2.39 11
10 06/11/2024 01:34:48 72.12, 149.31 49.07 06/11/2024 01:33:36 72.11, 149.27 49.08 1.75 72
11 06/13/2024 11:56:27 -72.32, 173.53 130.86 06/13/2024 11:57:31 -72.29, 173.56 130.90 2.69 64
12 06/13/2024 12:47:10 72.18, -18.89 49.00 06/13/2024 12:46:52 72.18, -18.98 49.00 2.84 18



Historial Predications of SNOs between NPP and TERRA
